Temp
25 25 25 25 25 25 25 25 24 24 24 24 23 23 24 24 25 25 25 25 25 25 25 25 25 25 25 25 25 24 25 25 25 25 25 25 25 25 26 26 26 27
24 24 24 24 24 24 24 24 24 24 23 23 24 24 24 24 25 25 25 25 25 25 25 25 25 24 24 24 24 24 24 25 25 25 25 25 25 25 25 25 26 26
24 24 24 24 24 24 24 24 24 24 23 23 24 24 24 25 25 25 25 25 25 25 25 25 24 24 24 24 24 24 24 24 24 24 24 24 25 25 25 25 25 26
24 24 24 24 23 23 24 24 24 24 24 24 24 24 24 24 24 24 25 25 25 24 24 25 24 25 25 24 24 24 24 24 24 24 24 24 24 24 25 25 25 26
24 23 23 23 23 22 23 23 23 24 24 24 24 24 24 24 24 24 24 25 25 24 24 24 24 24 24 24 24 24 24 24 24 24 24 24 24 24 24 25 25 26
24 23 23 23 22 22 22 23 23 23 23 23 23 24 24 24 24 24 24 24 25 25 24 23 23 24 24 24 24 23 24 24 24 24 23 24 24 24 24 25 25 25
24 24 24 23 23 22 22 23 23 23 23 23 23 23 23 23 24 24 24 24 25 24 24 23 23 23 23 24 24 23 23 24 24 24 23 23 23 24 24 24 24 25
24 24 23 23 23 23 22 22 22 22 22 22 23 23 23 23 23 23 24 24 25 24 24 23 23 23 23 24 24 23 23 24 24 24 23 23 23 23 24 24 24 24
24 24 23 23 23 23 22 22 22 22 22 22 23 23 23 23 23 23 24 24 25 24 24 23 23 23 23 23 23 23 23 23 24 24 23 23 23 24 24 23 24 24
23 23 23 23 23 22 22 22 21 22 22 23 23 23 23 23 23 23 24 24 24 24 23 23 23 24 24 23 23 23 23 23 23 23 23 23 23 24 24 23 24 24
23 23 23 23 22 22 22 21 21 22 23 23 22 23 23 23 23 23 23 23 23 23 23 23 23 24 24 23 23 23 23 23 23 23 23 23 23 23 23 23 23 23
23 23 23 23 22 22 22 21 21 22 23 22 22 23 23 23 23 23 23 23 23 24 23 23 24 24 24 23 22 23 23 23 23 23 23 23 23 23 23 23 23 23
23 23 23 23 22 22 21 21 21 22 22 22 23 23 23 23 23 23 23 23 23 24 23 23 24 24 23 23 22 23 24 24 23 23 23 23 23 23 23 23 23 23
23 22 22 22 22 22 21 21 21 22 22 22 22 22 22 22 22 23 23 24 24 24 23 23 23 23 23 22 22 23 23 23 23 23 23 23 22 23 23 23 23 23
22 22 22 22 22 21 22 22 22 22 23 22 22 22 21 21 22 23 23 23 24 24 23 23 23 22 22 22 22 22 23 23 23 23 23 23 23 23 23 23 23 23
23 22 22 22 22 22 22 21 21 22 22 22 22 22 21 21 22 23 23 24 24 23 23 22 22 22 22 22 23 23 23 23 23 23 23 23 23 22 22 23 23 23
23 22 22 22 23 23 22 21 22 22 22 22 22 22 21 21 22 23 23 23 23 23 22 22 22 22 23 23 23 23 23 23 23 23 23 23 23 23 22 23 23 23
23 23 23 23 23 23 22 22 22 22 22 22 22 21 21 22 22 23 23 22 23 23 22 22 22 22 22 22 23 23 23 23 23 23 23 23 23 23 23 23 23 23
23 23 23 23 23 23 23 23 22 21 22 22 22 22 22 22 22 23 23 23 23 23 21 21 22 22 21 21 22 22 22 22 23 23 23 23 23 23 22 23 23 23
24 24 24 23 23 23 23 23 22 22 22 22 23 23 23 23 23 24 24 23 24 23 21 21 21 21 21 21 21 21 22 22 22 22 23 23 23 23 23 23 23 22
24 25 24 24 24 23 23 23 23 22 23 23 23 23 24 24 24 24 24 24 24 24 22 21 21 21 21 21 21 21 22 22 22 22 23 23 24 24 23 23 23 22
24 24 24 24 24 24 24 24 23 24 23 23 24 24 24 24 24 24 24 24 24 24 22 21 21 20 20 20 20 21 21 21 22 22 22 23 24 24 24 23 23 23
25 24 24 24 24 24 25 24 24 24 24 23 23 23 23 23 23 23 23 23 23 23 22 21 20 19 19 20 20 20 20 20 20 21 21 22 23 23 23 23 23 23
25 25 25 25 25 25 25 24 24 24 23 23 23 23 23 23 23 23 22 22 22 22 21 20 20 19 19 19 19 19 19 19 19 20 20 21 22 22 22 22 22 22
25 25 24 24 24 24 24 24 24 23 23 23 23 23 23 23 23 23 22 22 22 21 21 20 19 19 18 19 19 19 19 19 18 19 20 21 21 22 22 22 22 22
25 25 24 24 24 24 24 24 23 23 22 22 22 22 23 22 22 22 22 21 21 21 20 20 19 18 18 18 19 18 18 18 18 18 19 20 20 21 21 22 22 21
Height
794 795 797 798 800 801 802 803 804 804 804 805 806 807 807 808 809 810 811 813 815 816 816 816 816 817 817 818 819 819 820 820 821 822 822 822 822 821 822 822 822 822
793 794 796 797 798 800 801 802 802 802 803 804 805 805 805 807 808 808 809 811 814 815 815 815 815 816 816 817 818 818 818 819 819 820 821 821 820 820 820 821 821 821
792 793 794 796 797 798 800 800 801 801 802 803 804 804 804 806 807 807 808 810 812 815 815 815 815 815 815 816 817 817 817 818 818 819 819 819 819 819 819 820 820 820
791 792 793 794 795 797 798 799 800 800 801 801 802 803 803 804 806 807 807 808 811 814 815 815 815 814 815 815 815 816 816 816 816 817 817 817 817 818 818 818 818 818
790 791 792 793 794 795 796 797 798 798 799 800 801 802 802 803 804 805 805 806 809 812 813 814 815 815 814 813 813 814 814 814 815 815 815 815 815 816 816 816 816 815
789 790 790 791 792 793 794 794 795 796 797 798 800 801 801 802 803 803 803 804 806 809 811 814 815 815 814 812 811 812 812 813 813 813 813 813 813 813 814 814 813 812
787 788 789 790 790 792 792 793 794 795 796 797 798 799 799 800 801 801 802 803 804 807 810 813 814 814 812 810 809 810 810 811 811 811 811 810 811 811 810 810 809 809
785 786 788 789 789 791 791 792 793 794 795 795 795 797 798 798 799 800 801 801 802 805 807 809 811 811 810 809 808 808 809 809 810 810 810 809 809 809 808 807 806 805
784 785 787 788 788 789 790 791 792 792 793 794 794 796 796 797 798 798 799 799 800 803 804 805 807 808 808 807 807 807 807 807 808 808 808 808 808 808 806 805 804 805
783 784 786 787 787 788 789 790 790 791 791 793 794 795 795 796 796 797 797 796 797 799 802 804 805 806 806 805 805 805 804 804 805 806 806 806 806 805 804 803 803 805
781 783 784 785 786 786 787 788 789 789 790 792 794 795 795 795 795 795 794 794 795 799 802 803 803 804 804 804 804 804 803 803 803 804 804 804 804 803 801 801 802 803
780 781 782 782 784 785 785 786 787 788 790 792 793 794 794 794 794 794 794 795 797 800 802 802 802 802 802 803 803 803 802 802 801 802 803 803 802 801 800 801 801 801
776 778 779 781 782 783 784 785 786 787 789 791 791 792 793 793 793 794 795 796 797 799 800 800 800 800 801 801 802 801 801 800 800 800 801 801 801 800 800 800 800 800
775 778 780 781 781 781 782 783 784 785 786 788 789 791 793 794 795 794 794 795 796 797 798 799 798 798 799 800 800 800 799 799 798 799 799 799 799 798 798 798 798 798
776 778 779 779 779 778 780 782 783 782 782 784 787 790 794 797 796 794 794 794 794 795 797 797 797 798 798 799 799 799 799 798 798 798 798 798 797 797 797 797 797 797
774 775 775 776 776 776 778 781 783 782 780 782 784 788 795 798 796 794 793 793 792 793 796 797 797 797 797 797 798 797 797 797 797 796 796 796 796 796 795 795 795 796
771 772 772 773 774 775 778 781 783 782 780 780 781 785 792 795 794 793 792 792 791 792 795 796 795 796 796 796 796 796 796 795 795 795 794 794 795 795 795 795 795 795
769 770 770 772 773 775 777 779 781 781 781 782 783 786 791 793 792 791 791 792 792 793 794 794 794 795 795 795 795 795 795 794 794 794 793 793 793 793 794 794 794 794
768 768 769 771 772 775 777 778 780 782 783 783 785 788 791 792 792 791 791 791 791 792 793 793 793 793 794 795 795 794 794 793 793 793 793 792 792 792 793 793 792 792
767 767 768 770 771 773 775 777 779 781 783 784 786 788 789 790 791 791 791 791 790 790 790 791 792 792 793 794 794 794 793 792 792 792 791 791 791 791 792 792 791 791
766 767 769 770 771 773 775 776 778 780 782 784 785 787 788 789 790 791 791 791 790 789 789 790 792 792 793 793 792 792 792 791 791 791 790 790 790 790 790 790 790 790
766 767 769 770 772 774 775 776 778 779 781 783 784 786 787 788 790 790 791 791 790 790 790 790 791 792 792 792 791 791 791 790 790 789 788 788 788 788 788 789 789 790
766 768 769 770 772 773 775 776 777 779 780 782 783 785 786 788 790 790 790 790 790 790 790 790 790 791 791 790 790 789 789 789 789 788 787 787 787 787 787 788 789 789
767 769 770 771 772 773 775 776 777 778 780 781 783 784 786 787 788 789 789 789 789 789 789 788 788 789 789 789 789 788 788 788 788 787 787 787 786 786 786 787 788 788
768 769 770 771 772 773 775 776 777 778 779 780 782 784 784 786 786 787 787 787 787 788 787 786 787 787 788 788 787 787 786 786 786 786 786 786 786 786 787 787 788 788
769 770 771 771 773 773 775 776 777 778 779 780 782 783 783 784 784 785 785 785 785 786 786 785 785 786 786 786 786 786 785 784 784 784 785 785 785 786 786 787 788 787
Wind_Speed
20 20 20 19 18 17 16 15 15 15 16 14 12 11 10 11 11 9 9 12 14 16 16 16 15 14 15 14 13 12 11 11 10 10 11 10 11 12 12 12 13 14
22 21 21 20 19 19 18 17 16 16 16 15 14 14 12 13 13 10 9 10 12 14 16 17 15 13 14 13 12 13 13 13 12 10 11 11 12 12 12 13 13 14
23 21 21 21 20 20 20 19 19 18 18 16 15 15 13 13 14 11 10 10 9 10 13 15 14 14 15 13 12 14 14 13 11 9 10 12 13 12 12 13 13 13
22 19 19 20 19 19 19 19 20 20 20 19 18 17 14 12 12 10 9 9 9 10 11 12 13 15 15 13 12 15 14 13 12 10 11 13 13 12 12 13 13 12
20 18 16 17 16 15 17 18 19 20 21 20 18 16 15 14 13 11 10 10 11 13 13 13 14 15 14 13 14 15 15 14 13 11 12 14 13 12 11 12 12 12
19 18 16 15 14 12 14 16 18 19 19 19 17 15 15 15 14 12 11 11 12 13 13 14 14 14 14 14 13 13 13 13 11 10 10 11 11 10 10 10 11 12
18 18 18 16 13 11 13 14 14 16 17 17 18 18 18 18 16 14 13 14 13 12 13 14 15 16 16 14 14 14 14 13 12 12 12 10 9 10 10 10 10 11
18 18 18 15 13 13 14 13 13 14 15 17 19 20 20 19 17 15 15 15 14 14 14 15 16 17 15 13 13 13 13 12 10 11 10 9 9 10 10 10 12 14
18 17 16 14 14 14 14 13 13 12 13 16 19 18 17 17 16 16 17 15 14 15 15 15 17 16 13 10 10 10 11 10 8 9 9 8 10 10 9 11 14 15
16 13 14 14 14 14 13 14 13 11 13 15 16 16 15 15 15 16 16 15 15 16 14 14 16 15 13 12 11 11 11 9 8 10 11 9 9 10 11 13 14 13
15 13 13 13 13 13 13 13 12 12 14 15 15 15 15 15 15 15 14 15 17 18 15 14 15 14 14 13 12 11 10 9 8 9 10 9 8 9 12 13 11 10
15 14 13 12 11 12 12 11 11 13 15 14 15 16 14 14 14 14 14 16 17 17 16 15 15 14 13 13 12 11 11 10 8 7 8 9 10 11 13 12 9 10
13 11 10 11 11 12 11 9 10 13 15 15 15 15 15 14 13 13 13 13 14 14 13 13 12 11 11 13 14 14 12 9 8 8 8 10 11 12 13 11 10 11
12 11 12 12 12 11 11 11 12 12 13 13 13 13 14 13 11 10 10 9 9 9 8 9 10 10 10 13 15 13 9 7 7 8 9 9 10 10 10 11 11 11
15 15 14 13 10 10 11 12 11 11 10 10 9 9 11 11 9 7 7 8 8 7 6 7 9 9 9 12 12 9 7 7 7 7 8 9 8 8 9 9 9 10
15 14 13 11 10 10 9 8 8 8 8 8 6 5 8 9 8 7 6 8 9 7 5 5 7 8 9 11 11 8 6 5 6 7 8 8 8 8 9 9 8 9
14 12 10 9 9 8 8 8 7 6 6 6 6 7 9 9 7 7 6 6 9 8 5 5 7 8 8 9 9 9 8 5 5 7 8 8 8 8 8 9 8 8
13 11 9 9 8 7 8 9 7 6 7 8 8 9 10 8 6 7 6 5 6 7 8 7 6 6 5 6 7 7 8 7 5 6 7 9 9 8 8 9 8 8
12 11 10 11 10 8 8 10 10 8 9 9 8 8 7 7 7 7 7 7 6 5 7 7 5 4 3 3 4 4 5 5 5 5 6 7 8 8 8 9 9 9
12 11 11 12 11 9 9 10 10 9 8 8 7 8 6 5 7 6 5 7 7 8 10 9 6 5 4 2 3 2 3 4 4 5 6 7 8 8 6 6 7 8
12 11 11 12 12 11 11 11 10 10 10 8 7 6 5 2 2 1 1 1 1 6 10 9 6 5 3 2 3 4 5 5 5 7 8 8 8 7 5 4 5 6
12 12 12 12 12 12 12 13 12 11 9 7 6 4 3 2 1 1 1 2 2 3 7 7 5 4 1 2 3 5 6 5 6 7 7 8 9 7 4 3 4 5
12 12 12 12 12 12 11 11 10 8 7 6 5 4 4 4 3 2 1 2 2 3 5 5 5 3 2 4 5 7 7 6 7 8 7 8 9 7 5 5 5 5
12 12 12 12 11 11 10 9 9 8 7 7 7 6 6 7 6 5 3 3 3 2 4 6 6 3 3 4 6 7 8 8 6 6 6 7 7 6 6 6 6 6
12 13 13 13 12 12 11 11 11 10 9 9 8 7 7 7 7 7 6 6 5 3 3 6 5 3 3 4 6 8 11 9 4 3 5 6 6 6 6 6 6 6
13 13 13 13 13 13 13 12 12 11 10 9 9 7 6 7 7 6 5 6 5 4 3 3 3 2 3 5 7 9 10 7 2 2 4 3 4 5 6 6 5 3
Wind_Direction
208 213 213 214 217 221 223 219 217 219 220 224 225 223 226 240 243 237 243 251 243 235 234 236 235 235 236 237 237 238 243 251 259 264 269 274 275 274 275 276 274 274
208 213 214 216 219 222 225 224 223 223 226 229 229 226 227 236 240 243 246 235 229 234 234 232 231 229 230 233 237 243 247 250 255 264 272 276 277 275 274 277 274 272
208 212 213 216 218 220 221 222 224 226 231 235 234 230 229 235 238 241 247 235 226 236 237 232 231 234 237 240 246 252 253 252 253 258 266 272 278 279 278 280 277 271
205 205 210 214 215 218 218 219 224 227 231 236 239 240 236 235 237 239 245 241 230 236 244 241 237 241 244 238 244 252 251 250 252 255 263 268 275 281 283 286 284 277
201 198 203 210 209 211 214 218 224 227 229 233 237 241 241 236 237 239 241 240 233 233 242 248 243 241 241 234 239 250 250 251 252 253 261 266 270 278 281 285 287 284
199 198 199 207 208 207 214 222 228 228 229 232 231 232 234 234 235 235 236 239 237 233 234 241 241 235 235 233 235 244 247 246 244 243 254 265 270 272 273 280 287 288
199 199 198 203 203 206 215 222 226 225 226 227 226 227 230 234 234 232 236 240 241 240 236 240 247 241 232 230 231 237 244 245 246 249 252 259 264 265 267 269 273 277
202 200 198 199 201 207 214 218 218 218 221 225 227 231 233 233 234 234 236 240 243 245 240 238 246 243 230 226 232 237 243 250 255 257 257 256 257 260 262 260 258 260
202 200 199 201 205 208 212 218 220 220 224 228 231 236 235 230 231 233 232 235 239 242 242 238 239 239 228 221 230 235 240 248 253 252 253 257 264 263 257 261 265 262
196 196 200 203 206 208 213 217 221 226 229 230 232 237 237 231 230 232 232 233 234 237 240 238 236 238 232 224 226 233 237 239 240 247 251 254 264 265 257 265 275 272
192 192 198 202 205 210 215 217 221 225 225 228 235 238 238 236 235 235 234 233 232 232 232 233 238 242 238 230 226 228 231 228 231 248 257 255 257 258 258 269 278 266
193 193 196 201 210 214 213 215 221 222 221 227 236 240 241 241 241 236 228 225 227 226 227 234 244 248 242 232 226 231 236 237 237 245 253 252 253 257 265 275 283 273
198 201 207 209 214 215 210 209 216 218 222 230 238 244 248 246 242 234 221 217 218 217 225 240 247 246 239 231 231 238 243 241 238 239 241 247 254 263 272 275 276 276
200 208 213 207 205 210 210 207 207 211 220 229 238 251 256 251 243 230 216 214 217 216 223 238 242 239 235 231 232 233 233 234 238 243 245 251 260 268 274 276 275 274
188 195 200 199 201 209 212 207 202 206 212 213 223 250 261 257 248 230 213 211 216 221 224 230 238 241 233 227 224 219 218 227 232 237 241 245 257 271 278 283 283 277
178 187 197 204 211 208 203 202 201 203 202 195 195 220 246 247 238 229 220 215 219 223 222 221 227 227 220 214 211 209 212 221 231 240 246 248 250 262 275 281 279 276
175 183 194 202 209 198 184 187 192 187 183 178 172 189 217 229 227 227 222 220 229 223 199 200 210 208 211 213 212 216 216 218 243 254 262 272 266 258 266 271 268 270
176 182 190 192 194 189 177 175 173 168 174 180 177 188 204 209 213 223 213 203 222 207 181 188 201 194 205 220 222 226 224 224 243 257 267 282 283 275 276 275 266 262
176 179 184 185 186 186 179 172 171 173 174 176 180 186 185 183 195 207 201 197 207 187 169 177 177 164 177 207 215 224 228 232 250 269 271 275 278 278 281 283 277 271
172 171 171 175 181 183 175 168 168 166 156 155 168 174 163 171 194 195 188 201 200 172 165 171 166 154 159 184 205 223 250 257 273 290 288 283 278 273 272 282 292 294
164 161 157 159 165 167 164 162 159 151 144 142 151 158 155 174 224 253 34 267 175 141 151 162 162 160 180 238 268 286 295 298 302 297 289 288 286 277 271 289 311 319
159 157 154 152 155 158 158 157 154 147 142 141 140 143 155 178 258 316 26 35 43 113 139 145 147 151 185 324 331 324 321 328 324 309 297 295 295 294 302 319 321 321
161 160 161 161 163 166 163 156 153 149 143 143 144 144 164 181 190 191 142 87 91 121 128 134 138 117 52 10 1 353 349 346 329 312 303 299 299 306 320 328 332 329
168 167 168 169 171 173 169 161 158 155 150 149 154 164 176 177 174 172 160 141 154 140 117 136 147 118 53 10 4 3 354 346 329 308 301 299 302 311 316 322 330 325
174 175 174 173 175 175 171 169 167 160 152 151 161 181 184 175 172 172 163 159 166 154 109 130 141 116 54 22 15 3 350 346 341 312 307 304 306 310 309 315 320 310
181 184 181 176 179 179 175 173 167 158 152 157 173 189 179 167 171 171 151 141 141 124 109 133 146 107 56 21 7 358 352 355 17 341 328 315 312 309 295 294 301 296